| time (UTC) | temp F | wind direction | speed MPH | gust MPH | rain 1hr in | rain 24hr in | rain mn in | humidity % | barometer mb |
| 20260905012524 | 69 | 13 | 2.0 | 5.0 | 0.00 | 0.00 | 0.00 | 61 | 1014.1 |
| 20260905012023 | 70 | 318 | 2.0 | 5.0 | 0.00 | 0.00 | 0.00 | 59 | 1014.0 |
| 20260905011548 | 71 | 24 | 2.0 | 4.0 | 0.00 | 0.00 | 0.00 | 59 | 1014.0 |
| 20260905011024 | 71 | 343 | 1.0 | 4.0 | 0.00 | 0.00 | 0.00 | 58 | 1014.0 |
| 20260905010523 | 70 | 345 | 2.0 | 5.0 | 0.00 | 0.00 | 0.00 | 59 | 1014.0 |
| 20260905010057 | 70 | 24 | 2.0 | 7.0 | 0.00 | 0.00 | 0.00 | 58 | 1014.0 |
| 20260905005528 | 70 | 16 | 2.0 | 10.0 | 0.00 | 0.00 | 0.00 | 59 | 1013.9 |
| 20260905005026 | 70 | 338 | 4.0 | 10.0 | 0.00 | 0.00 | 0.00 | 59 | 1013.9 |
| 20260905004553 | 69 | 342 | 2.0 | 4.0 | 0.00 | 0.00 | 0.00 | 59 | 1013.9 |
| 20260905004030 | 69 | 22 | 1.0 | 4.0 | 0.00 | 0.00 | 0.00 | 60 | 1013.9 |
| 20260905003527 | 70 | 49 | 1.0 | 10.0 | 0.00 | 0.00 | 0.00 | 58 | 1013.9 |
| 20260905003048 | 70 | 350 | 5.0 | 11.0 | 0.00 | 0.00 | 0.00 | 58 | 1013.8 |
| 20260905002528 | 70 | 343 | 5.0 | 11.0 | 0.00 | 0.00 | 0.00 | 57 | 1013.7 |
| 20260905002027 | 70 | 23 | 4.0 | 11.0 | 0.00 | 0.00 | 0.00 | 57 | 1013.8 |
| 20260905001546 | 71 | 350 | 2.0 | 9.0 | 0.00 | 0.00 | 0.00 | 59 | 1013.7 |
| 20260905001026 | 71 | 348 | 3.0 | 9.0 | 0.00 | 0.00 | 0.00 | 59 | 1013.7 |
| 20260905000526 | 70 | 303 | 1.0 | 8.0 | 0.00 | 0.00 | 0.00 | 58 | 1013.7 |
| 20260905000051 | 70 | 337 | 3.0 | 8.0 | 0.00 | 0.00 | 0.00 | 60 | 1013.6 |
| 20260904235527 | 70 | 319 | 3.0 | 8.0 | 0.00 | 0.00 | 0.00 | 58 | 1013.6 |
| 20260904235022 | 70 | 31 | 3.0 | 8.0 | 0.00 | 0.00 | 0.00 | 58 | 1013.6 |
| 20260904234552 | 70 | 331 | 2.0 | 8.0 | 0.00 | 0.00 | 0.00 | 60 | 1013.6 |
| 20260904234024 | 69 | 34 | 3.0 | 8.0 | 0.00 | 0.00 | 0.00 | 58 | 1013.6 |
| 20260904233524 | 70 | 16 | 2.0 | 10.0 | 0.00 | 0.00 | 0.00 | 60 | 1013.7 |
| 20260904233047 | 69 | 341 | 4.0 | 10.0 | 0.00 | 0.00 | 0.00 | 59 | 1013.6 |
| 20260904232528 | 69 | 326 | 6.0 | 10.0 | 0.00 | 0.00 | 0.00 | 58 | 1013.7 |
| 20260904232031 | 70 | 46 | 4.0 | 13.0 | 0.00 | 0.00 | 0.00 | 59 | 1013.7 |
| 20260904231549 | 69 | 84 | 5.0 | 13.0 | 0.00 | 0.00 | 0.00 | 59 | 1013.7 |
| 20260904231027 | 70 | 23 | 3.0 | 10.0 | 0.00 | 0.00 | 0.00 | 59 | 1013.6 |
| 20260904230526 | 70 | 68 | 3.0 | 10.0 | 0.00 | 0.00 | 0.00 | 56 | 1013.7 |
| 20260904225523 | 70 | 90 | 2.0 | 7.0 | 0.00 | 0.01 | 0.00 | 60 | 1013.8 |
| 20260904225025 | 69 | 88 | 3.0 | 7.0 | 0.00 | 0.01 | 0.00 | 60 | 1013.7 |
| 20260904224606 | 68 | 336 | 2.0 | 5.0 | 0.00 | 0.01 | 0.00 | 63 | 1013.6 |
| 20260904224026 | 68 | 5 | 1.0 | 4.0 | 0.00 | 0.01 | 0.00 | 60 | 1013.7 |
| 20260904223523 | 67 | 78 | 2.0 | 6.0 | 0.00 | 0.01 | 0.00 | 62 | 1013.8 |
| 20260904223048 | 67 | 106 | 3.0 | 6.0 | 0.00 | 0.01 | 0.00 | 62 | 1013.7 |
| 20260904222523 | 67 | 100 | 3.0 | 7.0 | 0.00 | 0.01 | 0.00 | 63 | 1013.6 |
| 20260904222025 | 67 | 126 | 3.0 | 7.0 | 0.00 | 0.01 | 0.00 | 63 | 1013.7 |
| 20260904221547 | 67 | 115 | 4.0 | 7.0 | 0.00 | 0.01 | 0.00 | 62 | 1013.7 |
| 20260904221027 | 67 | 105 | 1.0 | 6.0 | 0.00 | 0.01 | 0.00 | 63 | 1013.6 |
| 20260904220527 | 67 | 99 | 1.0 | 6.0 | 0.00 | 0.01 | 0.00 | 62 | 1013.7 |
| 20260904220058 | 68 | 55 | 1.0 | 6.0 | 0.00 | 0.01 | 0.00 | 62 | 1013.7 |
| 20260904215528 | 68 | 90 | 2.0 | 11.0 | 0.00 | 0.02 | 0.00 | 62 | 1013.7 |
| 20260904215023 | 68 | 72 | 6.0 | 11.0 | 0.00 | 0.02 | 0.00 | 61 | 1013.7 |
| 20260904214554 | 69 | 73 | 4.0 | 10.0 | 0.00 | 0.02 | 0.00 | 60 | 1013.7 |
| 20260904214026 | 70 | 150 | 2.0 | 6.0 | 0.00 | 0.02 | 0.00 | 59 | 1013.6 |
| 20260904213527 | 69 | 196 | 1.0 | 6.0 | 0.00 | 0.02 | 0.00 | 61 | 1013.5 |
| 20260904213048 | 68 | 332 | 2.0 | 7.0 | 0.00 | 0.02 | 0.00 | 63 | 1013.5 |
| 20260904212527 | 68 | 300 | 3.0 | 7.0 | 0.00 | 0.02 | 0.00 | 63 | 1013.5 |
| 20260904212027 | 68 | 288 | 3.0 | 7.0 | 0.00 | 0.02 | 0.00 | 61 | 1013.6 |
| 20260904211559 | 68 | 0 | 0.0 | 4.0 | 0.00 | 0.02 | 0.00 | 61 | 1013.7 |
| 20260904211026 | 67 | 302 | 2.0 | 5.0 | 0.00 | 0.02 | 0.00 | 64 | 1013.7 |
| 20260904210527 | 68 | 319 | 1.0 | 5.0 | 0.00 | 0.02 | 0.00 | 62 | 1013.6 |
| 20260904210058 | 68 | 16 | 1.0 | 8.0 | 0.00 | 0.02 | 0.00 | 61 | 1013.8 |
| 20260904205525 | 68 | 63 | 1.0 | 8.0 | 0.00 | 0.07 | 0.00 | 64 | 1013.7 |
| 20260904205024 | 67 | 321 | 3.0 | 8.0 | 0.00 | 0.07 | 0.00 | 62 | 1013.7 |
| 20260904204548 | 67 | 311 | 3.0 | 8.0 | 0.00 | 0.07 | 0.00 | 61 | 1013.7 |
| 20260904204031 | 67 | 251 | 1.0 | 5.0 | 0.00 | 0.07 | 0.00 | 63 | 1013.7 |
| 20260904203527 | 67 | 275 | 2.0 | 6.0 | 0.00 | 0.07 | 0.00 | 62 | 1013.7 |
| 20260904203050 | 67 | 50 | 1.0 | 6.0 | 0.00 | 0.07 | 0.00 | 62 | 1013.7 |
| 20260904202527 | 67 | 325 | 3.0 | 6.0 | 0.00 | 0.07 | 0.00 | 62 | 1013.7 |
| 20260904202025 | 67 | 113 | 3.0 | 5.0 | 0.00 | 0.07 | 0.00 | 62 | 1013.7 |
| 20260904201552 | 67 | 345 | 2.0 | 5.0 | 0.00 | 0.07 | 0.00 | 62 | 1013.7 |
| 20260904201024 | 67 | 28 | 0.0 | 8.0 | 0.00 | 0.07 | 0.00 | 64 | 1013.7 |
| 20260904200527 | 67 | 215 | 2.0 | 8.0 | 0.00 | 0.07 | 0.00 | 64 | 1013.8 |
| 20260904200047 | 66 | 101 | 4.0 | 8.0 | 0.00 | 0.07 | 0.00 | 63 | 1013.7 |
| 20260904195529 | 66 | 95 | 3.0 | 10.0 | 0.00 | 0.07 | 0.00 | 63 | 1013.6 |
| 20260904195024 | 66 | 184 | 2.0 | 10.0 | 0.00 | 0.07 | 0.00 | 63 | 1013.7 |
| 20260904194544 | 67 | 167 | 3.0 | 9.0 | 0.00 | 0.07 | 0.00 | 64 | 1013.6 |
| 20260904194023 | 67 | 159 | 6.0 | 9.0 | 0.00 | 0.07 | 0.00 | 63 | 1013.8 |
| 20260904193528 | 67 | 138 | 4.0 | 9.0 | 0.00 | 0.07 | 0.00 | 64 | 1013.8 |
| 20260904193052 | 67 | 116 | 1.0 | 7.0 | 0.00 | 0.07 | 0.00 | 66 | 1013.8 |
| 20260904192525 | 66 | 90 | 2.0 | 7.0 | 0.00 | 0.07 | 0.00 | 65 | 1013.8 |
| 20260904192024 | 66 | 306 | 3.0 | 9.0 | 0.00 | 0.07 | 0.00 | 64 | 1013.9 |
| 20260904191547 | 66 | 160 | 3.0 | 9.0 | 0.00 | 0.07 | 0.00 | 64 | 1013.8 |
| 20260904191024 | 66 | 111 | 2.0 | 7.0 | 0.00 | 0.07 | 0.00 | 68 | 1013.9 |
| 20260904190523 | 66 | 312 | 4.0 | 6.0 | 0.00 | 0.07 | 0.00 | 67 | 1014.0 |
| 20260904190048 | 66 | 340 | 1.0 | 9.0 | 0.00 | 0.07 | 0.00 | 69 | 1014.1 |
| 20260904185525 | 66 | 110 | 2.0 | 9.0 | 0.00 | 0.07 | 0.00 | 69 | 1014.1 |
| 20260904185023 | 66 | 10 | 3.0 | 11.0 | 0.00 | 0.07 | 0.00 | 70 | 1014.0 |
| 20260904184558 | 65 | 323 | 7.0 | 11.0 | 0.00 | 0.07 | 0.00 | 71 | 1014.1 |
| 20260904184026 | 65 | 21 | 3.0 | 8.0 | 0.00 | 0.07 | 0.00 | 73 | 1014.0 |
| 20260904183529 | 64 | 325 | 2.0 | 9.0 | 0.00 | 0.07 | 0.00 | 75 | 1014.1 |
| 20260904183050 | 64 | 61 | 3.0 | 11.0 | 0.00 | 0.07 | 0.00 | 81 | 1014.1 |
| 20260904182528 | 63 | 89 | 5.0 | 11.0 | 0.00 | 0.07 | 0.00 | 81 | 1014.1 |
| 20260904182028 | 62 | 208 | 3.0 | 5.0 | 0.00 | 0.07 | 0.00 | 86 | 1014.0 |
| 20260904181549 | 61 | 309 | 3.0 | 4.0 | 0.00 | 0.07 | 0.00 | 87 | 1013.9 |
| 20260904181026 | 60 | 244 | 2.0 | 4.0 | 0.00 | 0.07 | 0.00 | 89 | 1013.9 |
| 20260904180527 | 60 | 328 | 2.0 | 4.0 | 0.00 | 0.07 | 0.00 | 89 | 1014.0 |
| 20260904180054 | 60 | 273 | 1.0 | 4.0 | 0.00 | 0.07 | 0.00 | 91 | 1013.9 |
| 20260904175525 | 59 | 315 | 1.0 | 4.0 | 0.00 | 0.07 | 0.00 | 91 | 1014.0 |
| 20260904175024 | 59 | 309 | 1.0 | 5.0 | 0.00 | 0.07 | 0.00 | 93 | 1014.0 |
| 20260904174551 | 59 | 296 | 2.0 | 5.0 | 0.00 | 0.07 | 0.00 | 94 | 1014.0 |
| 20260904174027 | 58 | 300 | 2.0 | 4.0 | 0.00 | 0.07 | 0.00 | 95 | 1014.0 |
| 20260904173523 | 58 | 307 | 1.0 | 3.0 | 0.00 | 0.07 | 0.00 | 95 | 1014.0 |
| 20260904173047 | 57 | 314 | 2.0 | 4.0 | 0.00 | 0.07 | 0.00 | 95 | 1014.0 |
| 20260904172525 | 57 | 299 | 1.0 | 4.0 | 0.00 | 0.07 | 0.00 | 96 | 1014.0 |
| 20260904172026 | 57 | 292 | 2.0 | 4.0 | 0.00 | 0.07 | 0.00 | 96 | 1014.0 |
| 20260904171559 | 57 | 338 | 1.0 | 3.0 | 0.00 | 0.07 | 0.00 | 97 | 1013.9 |
| 20260904171027 | 56 | 334 | 1.0 | 3.0 | 0.00 | 0.07 | 0.00 | 97 | 1013.9 |
| 20260904170527 | 56 | 300 | 1.0 | 3.0 | 0.00 | 0.07 | 0.00 | 98 | 1013.9 |
| 20260904170054 | 56 | 0 | 0.0 | 2.0 | 0.00 | 0.07 | 0.00 | 98 | 1013.9 |
| 20260904165528 | 56 | 37 | 0.0 | 1.0 | 0.00 | 0.07 | 0.00 | 98 | 1013.8 |
| 20260904165024 | 55 | 36 | 0.0 | 1.0 | 0.00 | 0.07 | 0.00 | 98 | 1013.9 |
| 20260904164557 | 55 | 0 | 0.0 | 2.0 | 0.00 | 0.07 | 0.00 | 98 | 1014.0 |
| 20260904164026 | 55 | 0 | 0.0 | 3.0 | 0.00 | 0.07 | 0.00 | 99 | 1013.8 |
| 20260904163531 | 55 | 329 | 1.0 | 3.0 | 0.00 | 0.07 | 0.00 | 98 | 1013.8 |
| 20260904163046 | 54 | 350 | 1.0 | 3.0 | 0.00 | 0.07 | 0.00 | 98 | 1013.8 |
| 20260904162527 | 54 | 12 | 1.0 | 3.0 | 0.00 | 0.07 | 0.00 | 98 | 1013.8 |
| 20260904162023 | 54 | 12 | 1.0 | 2.0 | 0.00 | 0.07 | 0.00 | 98 | 1013.8 |
| 20260904161551 | 53 | 17 | 1.0 | 3.0 | 0.00 | 0.07 | 0.00 | 98 | 1013.8 |
| 20260904161028 | 53 | 351 | 0.0 | 3.0 | 0.00 | 0.07 | 0.00 | 99 | 1013.8 |
| 20260904160523 | 53 | 355 | 2.0 | 3.0 | 0.00 | 0.07 | 0.00 | 99 | 1013.7 |
| 20260904160054 | 53 | 41 | 1.0 | 3.0 | 0.00 | 0.07 | 0.00 | 99 | 1013.8 |
| 20260904155524 | 52 | 229 | 0.0 | 1.0 | 0.00 | 0.08 | 0.00 | 99 | 1013.8 |
| 20260904155023 | 52 | 0 | 0.0 | 1.0 | 0.00 | 0.08 | 0.00 | 98 | 1013.7 |
| 20260904154549 | 51 | 215 | 0.0 | 1.0 | 0.00 | 0.08 | 0.00 | 98 | 1013.7 |
| 20260904154025 | 51 | 0 | 0.0 | 1.0 | 0.00 | 0.08 | 0.00 | 98 | 1013.7 |
| 20260904153529 | 51 | 0 | 0.0 | 0.0 | 0.00 | 0.08 | 0.00 | 98 | 1013.7 |
| 20260904153047 | 51 | 0 | 0.0 | 1.0 | 0.00 | 0.08 | 0.00 | 98 | 1013.7 |
| 20260904152530 | 51 | 0 | 0.0 | 1.0 | 0.00 | 0.08 | 0.00 | 98 | 1013.6 |
| 20260904152028 | 50 | 0 | 0.0 | 1.0 | 0.00 | 0.08 | 0.00 | 98 | 1013.7 |
| 20260904151551 | 50 | 0 | 0.0 | 1.0 | 0.00 | 0.08 | 0.00 | 98 | 1013.7 |
| 20260904151024 | 50 | 0 | 0.0 | 1.0 | 0.00 | 0.08 | 0.00 | 98 | 1013.6 |
| 20260904150524 | 49 | 0 | 0.0 | 1.0 | 0.00 | 0.08 | 0.00 | 98 | 1013.5 |
| 20260904150049 | 49 | 215 | 0.0 | 1.0 | 0.00 | 0.08 | 0.00 | 98 | 1013.4 |
| 20260904145527 | 49 | 219 | 0.0 | 3.0 | 0.00 | 0.11 | 0.00 | 98 | 1013.3 |
| 20260904145024 | 49 | 150 | 0.0 | 3.0 | 0.00 | 0.11 | 0.00 | 98 | 1013.5 |
| 20260904144549 | 49 | 213 | 1.0 | 3.0 | 0.00 | 0.11 | 0.00 | 98 | 1013.4 |
| 20260904144024 | 49 | 178 | 0.0 | 2.0 | 0.00 | 0.11 | 0.00 | 98 | 1013.3 |
| 20260904143528 | 49 | 147 | 1.0 | 3.0 | 0.00 | 0.11 | 0.00 | 98 | 1013.3 |
| 20260904143048 | 49 | 191 | 1.0 | 3.0 | 0.00 | 0.11 | 0.00 | 98 | 1013.1 |
| 20260904142524 | 49 | 175 | 1.0 | 4.0 | 0.00 | 0.11 | 0.00 | 98 | 1012.9 |
| 20260904142029 | 49 | 161 | 2.0 | 4.0 | 0.00 | 0.11 | 0.00 | 98 | 1012.9 |
| 20260904141555 | 49 | 192 | 0.0 | 2.0 | 0.00 | 0.11 | 0.00 | 98 | 1012.8 |
| 20260904141024 | 49 | 0 | 0.0 | 2.0 | 0.00 | 0.11 | 0.00 | 98 | 1012.8 |
| 20260904140524 | 49 | 0 | 0.0 | 2.0 | 0.00 | 0.11 | 0.00 | 98 | 1012.7 |
| 20260904135527 | 48 | 130 | 0.0 | 1.0 | 0.00 | 0.16 | 0.00 | 98 | 1012.5 |
| 20260904135024 | 48 | 0 | 0.0 | 0.0 | 0.00 | 0.16 | 0.00 | 98 | 1012.4 |
| 20260904134554 | 48 | 0 | 0.0 | 1.0 | 0.00 | 0.16 | 0.00 | 98 | 1012.3 |
| 20260904134028 | 48 | 0 | 0.0 | 2.0 | 0.00 | 0.16 | 0.00 | 98 | 1012.3 |
| 20260904133524 | 48 | 150 | 1.0 | 3.0 | 0.00 | 0.16 | 0.00 | 98 | 1012.3 |
| 20260904133047 | 48 | 161 | 1.0 | 3.0 | 0.00 | 0.16 | 0.00 | 98 | 1012.3 |
| 20260904132531 | 48 | 152 | 1.0 | 2.0 | 0.00 | 0.16 | 0.00 | 98 | 1012.3 |
| 20260904132025 | 48 | 154 | 1.0 | 2.0 | 0.00 | 0.16 | 0.00 | 98 | 1012.4 |
| 20260904131553 | 48 | 141 | 0.0 | 1.0 | 0.00 | 0.16 | 0.00 | 98 | 1012.2 |
| 20260904131024 | 48 | 141 | 1.0 | 1.0 | 0.00 | 0.16 | 0.00 | 98 | 1012.3 |
| 20260904130524 | 48 | 141 | 0.0 | 1.0 | 0.00 | 0.16 | 0.00 | 98 | 1012.3 |
| 20260904130053 | 48 | 141 | 0.0 | 1.0 | 0.00 | 0.16 | 0.00 | 98 | 1012.3 |
| 20260904125524 | 48 | 141 | 0.0 | 1.0 | 0.00 | 0.21 | 0.00 | 98 | 1012.2 |
| 20260904125024 | 48 | 115 | 1.0 | 1.0 | 0.00 | 0.21 | 0.00 | 98 | 1012.3 |
| 20260904124550 | 48 | 115 | 0.0 | 1.0 | 0.00 | 0.21 | 0.00 | 98 | 1012.2 |
| 20260904124026 | 48 | 0 | 0.0 | 0.0 | 0.00 | 0.21 | 0.00 | 98 | 1012.1 |
| 20260904123523 | 48 | 0 | 0.0 | 0.0 | 0.00 | 0.21 | 0.00 | 98 | 1012.2 |
| 20260904123050 | 48 | 0 | 0.0 | 1.0 | 0.00 | 0.21 | 0.00 | 98 | 1012.1 |
| 20260904122526 | 48 | 0 | 0.0 | 1.0 | 0.00 | 0.21 | 0.00 | 98 | 1012.1 |
| 20260904122030 | 48 | 115 | 0.0 | 1.0 | 0.00 | 0.21 | 0.00 | 98 | 1012.2 |
| 20260904121548 | 48 | 146 | 1.0 | 1.0 | 0.00 | 0.21 | 0.00 | 98 | 1012.2 |
| 20260904121028 | 49 | 146 | 1.0 | 1.0 | 0.00 | 0.21 | 0.00 | 98 | 1012.1 |
| 20260904120525 | 49 | 146 | 1.0 | 1.0 | 0.00 | 0.21 | 0.00 | 98 | 1012.1 |
| 20260904120054 | 49 | 153 | 0.0 | 0.0 | 0.00 | 0.21 | 0.00 | 97 | 1012.1 |
| 20260904115524 | 49 | 153 | 0.0 | 0.0 | 0.00 | 0.27 | 0.00 | 98 | 1012.1 |
| 20260904115024 | 49 | 153 | 0.0 | 0.0 | 0.00 | 0.27 | 0.00 | 98 | 1012.0 |
| 20260904114554 | 49 | 0 | 0.0 | 0.0 | 0.00 | 0.27 | 0.00 | 98 | 1012.0 |
| 20260904114028 | 49 | 0 | 0.0 | 0.0 | 0.00 | 0.27 | 0.00 | 98 | 1011.7 |
| 20260904113526 | 49 | 0 | 0.0 | 0.0 | 0.00 | 0.27 | 0.00 | 98 | 1011.9 |
| 20260904113053 | 49 | 0 | 0.0 | 0.0 | 0.00 | 0.27 | 0.00 | 98 | 1011.9 |
| 20260904112527 | 49 | 0 | 0.0 | 0.0 | 0.00 | 0.27 | 0.00 | 98 | 1011.9 |
| 20260904112025 | 49 | 0 | 0.0 | 0.0 | 0.00 | 0.27 | 0.00 | 98 | 1011.9 |
| 20260904111551 | 49 | 0 | 0.0 | 0.0 | 0.00 | 0.27 | 0.00 | 98 | 1011.8 |
| 20260904111023 | 49 | 0 | 0.0 | 0.0 | 0.00 | 0.27 | 0.00 | 98 | 1011.7 |
| 20260904110527 | 49 | 0 | 0.0 | 0.0 | 0.00 | 0.27 | 0.00 | 98 | 1011.6 |
| 20260904110047 | 49 | 153 | 0.0 | 2.0 | 0.00 | 0.27 | 0.00 | 97 | 1011.5 |
| 20260904105526 | 49 | 153 | 1.0 | 2.0 | 0.00 | 0.33 | 0.00 | 97 | 1011.6 |
| 20260904105026 | 49 | 153 | 0.0 | 2.0 | 0.00 | 0.33 | 0.00 | 98 | 1011.5 |
| 20260904104546 | 49 | 0 | 0.0 | 0.0 | 0.00 | 0.33 | 0.00 | 98 | 1011.5 |
| 20260904104030 | 49 | 0 | 0.0 | 1.0 | 0.00 | 0.33 | 0.00 | 98 | 1011.5 |
| 20260904103529 | 49 | 0 | 0.0 | 1.0 | 0.00 | 0.33 | 0.00 | 98 | 1011.4 |
| 20260904103050 | 49 | 0 | 0.0 | 1.0 | 0.00 | 0.33 | 0.00 | 98 | 1011.3 |
| 20260904102526 | 49 | 0 | 0.0 | 0.0 | 0.00 | 0.33 | 0.00 | 98 | 1011.3 |
| 20260904102024 | 49 | 0 | 0.0 | 0.0 | 0.00 | 0.33 | 0.00 | 98 | 1011.2 |
| 20260904101550 | 49 | 0 | 0.0 | 0.0 | 0.00 | 0.33 | 0.00 | 98 | 1011.3 |
| 20260904101026 | 49 | 0 | 0.0 | 1.0 | 0.00 | 0.33 | 0.00 | 97 | 1011.2 |
| 20260904100525 | 49 | 0 | 0.0 | 1.0 | 0.00 | 0.33 | 0.00 | 97 | 1011.1 |
| 20260904100045 | 50 | 126 | 0.0 | 1.0 | 0.00 | 0.33 | 0.00 | 98 | 1011.2 |
| 20260904095524 | 50 | 136 | 0.0 | 1.0 | 0.00 | 0.34 | 0.00 | 98 | 1011.2 |
| 20260904095028 | 50 | 142 | 0.0 | 1.0 | 0.00 | 0.34 | 0.00 | 98 | 1011.2 |
| 20260904094553 | 50 | 137 | 0.0 | 1.0 | 0.00 | 0.34 | 0.00 | 98 | 1011.3 |
| 20260904094026 | 50 | 137 | 0.0 | 0.0 | 0.00 | 0.34 | 0.00 | 97 | 1011.2 |
| 20260904093526 | 50 | 137 | 0.0 | 0.0 | 0.00 | 0.34 | 0.00 | 97 | 1011.3 |
| 20260904093053 | 50 | 0 | 0.0 | 1.0 | 0.00 | 0.34 | 0.00 | 98 | 1011.3 |
| 20260904092526 | 50 | 0 | 0.0 | 1.0 | 0.00 | 0.34 | 0.00 | 98 | 1011.3 |
| 20260904092024 | 50 | 137 | 1.0 | 1.0 | 0.00 | 0.34 | 0.00 | 97 | 1011.3 |
| 20260904091547 | 50 | 96 | 1.0 | 1.0 | 0.00 | 0.34 | 0.00 | 98 | 1011.3 |
| 20260904091026 | 50 | 96 | 0.0 | 1.0 | 0.00 | 0.34 | 0.00 | 98 | 1011.4 |
| 20260904090525 | 50 | 0 | 0.0 | 0.0 | 0.00 | 0.34 | 0.00 | 97 | 1011.4 |
| 20260904090043 | 50 | 0 | 0.0 | 0.0 | 0.00 | 0.34 | 0.00 | 97 | 1011.5 |
| 20260904085527 | 50 | 0 | 0.0 | 0.0 | 0.00 | 0.34 | 0.00 | 97 | 1011.4 |
| 20260904085026 | 50 | 0 | 0.0 | 0.0 | 0.00 | 0.34 | 0.00 | 97 | 1011.4 |
| 20260904084553 | 50 | 0 | 0.0 | 0.0 | 0.00 | 0.34 | 0.00 | 97 | 1011.4 |
| 20260904084028 | 50 | 0 | 0.0 | 0.0 | 0.00 | 0.34 | 0.00 | 97 | 1011.5 |
| 20260904083528 | 50 | 0 | 0.0 | 0.0 | 0.00 | 0.34 | 0.00 | 97 | 1011.4 |
| 20260904083047 | 50 | 0 | 0.0 | 0.0 | 0.00 | 0.34 | 0.00 | 97 | 1011.4 |
| 20260904082527 | 50 | 0 | 0.0 | 0.0 | 0.00 | 0.34 | 0.00 | 97 | 1011.4 |
| 20260904082028 | 50 | 0 | 0.0 | 0.0 | 0.00 | 0.34 | 0.00 | 97 | 1011.4 |
| 20260904081544 | 50 | 0 | 0.0 | 0.0 | 0.00 | 0.34 | 0.00 | 97 | 1011.4 |
| 20260904081027 | 50 | 0 | 0.0 | 0.0 | 0.00 | 0.34 | 0.00 | 97 | 1011.4 |
| 20260904080528 | 50 | 0 | 0.0 | 1.0 | 0.00 | 0.34 | 0.00 | 97 | 1011.4 |
| 20260904080052 | 50 | 0 | 0.0 | 1.0 | 0.00 | 0.34 | 0.00 | 97 | 1011.4 |
| 20260904075526 | 50 | 0 | 0.0 | 1.0 | 0.00 | 0.35 | 0.00 | 97 | 1011.4 |
| 20260904075028 | 50 | 0 | 0.0 | 0.0 | 0.00 | 0.35 | 0.00 | 97 | 1011.3 |
| 20260904074554 | 50 | 0 | 0.0 | 0.0 | 0.00 | 0.35 | 0.00 | 97 | 1011.3 |
| 20260904074028 | 50 | 0 | 0.0 | 0.0 | 0.00 | 0.35 | 0.00 | 97 | 1011.3 |
| 20260904073528 | 50 | 0 | 0.0 | 0.0 | 0.00 | 0.35 | 0.00 | 97 | 1011.3 |
| 20260904073052 | 50 | 0 | 0.0 | 0.0 | 0.00 | 0.35 | 0.00 | 97 | 1011.3 |
| 20260904072528 | 50 | 0 | 0.0 | 0.0 | 0.00 | 0.35 | 0.00 | 97 | 1011.3 |
| 20260904072026 | 50 | 0 | 0.0 | 0.0 | 0.00 | 0.35 | 0.00 | 97 | 1011.3 |
| 20260904071553 | 50 | 0 | 0.0 | 0.0 | 0.00 | 0.35 | 0.00 | 97 | 1011.3 |
| 20260904071027 | 50 | 0 | 0.0 | 1.0 | 0.00 | 0.35 | 0.00 | 97 | 1011.3 |
| 20260904070527 | 50 | 0 | 0.0 | 1.0 | 0.00 | 0.35 | 0.00 | 97 | 1011.2 |
| 20260904070052 | 50 | 0 | 0.0 | 0.0 | 0.00 | 0.35 | 0.00 | 97 | 1011.3 |
| 20260904065527 | 50 | 0 | 0.0 | 1.0 | 0.00 | 0.36 | 0.35 | 97 | 1011.3 |
| 20260904065024 | 50 | 0 | 0.0 | 1.0 | 0.00 | 0.36 | 0.35 | 97 | 1011.2 |
| 20260904064550 | 50 | 0 | 0.0 | 0.0 | 0.00 | 0.36 | 0.35 | 97 | 1011.3 |
| 20260904064027 | 50 | 0 | 0.0 | 1.0 | 0.00 | 0.36 | 0.35 | 97 | 1011.1 |
| 20260904063525 | 51 | 0 | 0.0 | 1.0 | 0.00 | 0.36 | 0.35 | 97 | 1011.2 |
| 20260904063055 | 51 | 0 | 0.0 | 1.0 | 0.00 | 0.36 | 0.35 | 97 | 1011.2 |
| 20260904062528 | 51 | 96 | 0.0 | 1.0 | 0.00 | 0.36 | 0.35 | 97 | 1011.3 |
| 20260904062027 | 51 | 0 | 0.0 | 1.0 | 0.00 | 0.36 | 0.35 | 97 | 1011.1 |
| 20260904061551 | 51 | 96 | 0.0 | 1.0 | 0.00 | 0.36 | 0.35 | 97 | 1011.3 |
| 20260904061028 | 51 | 0 | 0.0 | 1.0 | 0.00 | 0.36 | 0.35 | 97 | 1011.2 |
| 20260904060528 | 51 | 0 | 0.0 | 1.0 | 0.00 | 0.36 | 0.35 | 97 | 1011.2 |
| 20260904060050 | 51 | 0 | 0.0 | 0.0 | 0.00 | 0.36 | 0.35 | 97 | 1011.2 |
| 20260904055523 | 51 | 0 | 0.0 | 0.0 | 0.00 | 0.36 | 0.35 | 96 | 1011.2 |
| 20260904055027 | 51 | 0 | 0.0 | 0.0 | 0.00 | 0.36 | 0.35 | 96 | 1011.2 |
| 20260904054547 | 51 | 0 | 0.0 | 0.0 | 0.00 | 0.36 | 0.35 | 96 | 1011.2 |
| 20260904054028 | 51 | 0 | 0.0 | 0.0 | 0.00 | 0.36 | 0.35 | 96 | 1011.1 |
| 20260904053527 | 51 | 0 | 0.0 | 1.0 | 0.00 | 0.36 | 0.35 | 96 | 1011.1 |
| 20260904053043 | 51 | 0 | 0.0 | 1.0 | 0.00 | 0.36 | 0.35 | 96 | 1011.2 |
| 20260904052528 | 51 | 81 | 0.0 | 2.0 | 0.00 | 0.36 | 0.35 | 96 | 1011.1 |
| 20260904052027 | 51 | 290 | 0.0 | 2.0 | 0.00 | 0.36 | 0.35 | 96 | 1011.2 |
| 20260904051602 | 52 | 292 | 0.0 | 2.0 | 0.00 | 0.36 | 0.35 | 96 | 1011.1 |
| 20260904051026 | 52 | 0 | 0.0 | 1.0 | 0.00 | 0.36 | 0.35 | 96 | 1011.2 |
| 20260904050524 | 52 | 35 | 0.0 | 1.0 | 0.00 | 0.36 | 0.35 | 96 | 1011.1 |
| 20260904050050 | 52 | 0 | 0.0 | 1.0 | 0.00 | 0.36 | 0.35 | 96 | 1011.2 |
| 20260904045524 | 52 | 0 | 0.0 | 1.0 | 0.00 | 0.36 | 0.35 | 96 | 1011.3 |
| 20260904045024 | 52 | 0 | 0.0 | 1.0 | 0.00 | 0.36 | 0.35 | 96 | 1011.2 |
| 20260904044547 | 52 | 0 | 0.0 | 1.0 | 0.00 | 0.36 | 0.35 | 96 | 1011.1 |
| 20260904044027 | 52 | 0 | 0.0 | 2.0 | 0.00 | 0.36 | 0.35 | 96 | 1011.2 |
| 20260904043525 | 52 | 0 | 0.0 | 2.0 | 0.00 | 0.36 | 0.35 | 96 | 1011.2 |
| 20260904043047 | 52 | 325 | 1.0 | 2.0 | 0.00 | 0.36 | 0.35 | 96 | 1011.3 |
| 20260904042528 | 52 | 38 | 0.0 | 1.0 | 0.00 | 0.36 | 0.35 | 95 | 1011.3 |
| 20260904042031 | 53 | 101 | 0.0 | 1.0 | 0.00 | 0.36 | 0.35 | 95 | 1011.2 |
| 20260904041546 | 53 | 0 | 0.0 | 1.0 | 0.00 | 0.36 | 0.35 | 95 | 1011.3 |
| 20260904041027 | 53 | 102 | 1.0 | 1.0 | 0.00 | 0.36 | 0.35 | 95 | 1011.2 |
| 20260904040525 | 53 | 82 | 0.0 | 1.0 | 0.00 | 0.36 | 0.35 | 95 | 1011.1 |
| 20260904040049 | 53 | 0 | 0.0 | 1.0 | 0.00 | 0.36 | 0.35 | 95 | 1011.1 |
| 20260904035527 | 53 | 0 | 0.0 | 1.0 | 0.00 | 0.36 | 0.35 | 94 | 1011.1 |
| 20260904035028 | 53 | 0 | 0.0 | 1.0 | 0.00 | 0.36 | 0.35 | 94 | 1011.2 |
| 20260904034550 | 54 | 0 | 0.0 | 1.0 | 0.00 | 0.36 | 0.35 | 94 | 1011.0 |
| 20260904034027 | 54 | 57 | 0.0 | 1.0 | 0.00 | 0.36 | 0.35 | 94 | 1011.0 |
| 20260904033525 | 54 | 0 | 0.0 | 0.0 | 0.00 | 0.36 | 0.35 | 94 | 1010.8 |
| 20260904033050 | 54 | 0 | 0.0 | 0.0 | 0.00 | 0.36 | 0.35 | 94 | 1010.8 |
| 20260904032525 | 54 | 0 | 0.0 | 0.0 | 0.00 | 0.36 | 0.35 | 93 | 1010.8 |
| 20260904032026 | 54 | 0 | 0.0 | 1.0 | 0.00 | 0.36 | 0.35 | 93 | 1010.7 |
| 20260904031550 | 55 | 0 | 0.0 | 1.0 | 0.00 | 0.36 | 0.35 | 92 | 1010.6 |
| 20260904031025 | 55 | 0 | 0.0 | 1.0 | 0.00 | 0.36 | 0.35 | 92 | 1010.5 |
| 20260904030529 | 55 | 0 | 0.0 | 1.0 | 0.00 | 0.36 | 0.35 | 92 | 1010.4 |
| 20260904030053 | 55 | 0 | 0.0 | 1.0 | 0.00 | 0.36 | 0.35 | 92 | 1010.4 |
| 20260904025527 | 56 | 57 | 0.0 | 1.0 | 0.00 | 0.36 | 0.35 | 91 | 1010.5 |
| 20260904025027 | 56 | 0 | 0.0 | 0.0 | 0.00 | 0.36 | 0.35 | 91 | 1010.5 |
| 20260904024553 | 56 | 0 | 0.0 | 1.0 | 0.00 | 0.36 | 0.35 | 90 | 1010.5 |
| 20260904024023 | 56 | 0 | 0.0 | 1.0 | 0.00 | 0.36 | 0.35 | 89 | 1010.5 |
| 20260904023527 | 56 | 0 | 0.0 | 1.0 | 0.00 | 0.36 | 0.35 | 89 | 1010.5 |
| 20260904023049 | 57 | 0 | 0.0 | 2.0 | 0.00 | 0.36 | 0.35 | 87 | 1010.4 |
| 20260904022525 | 57 | 0 | 0.0 | 2.0 | 0.00 | 0.36 | 0.35 | 86 | 1010.4 |
| 20260904022028 | 58 | 0 | 0.0 | 1.0 | 0.00 | 0.36 | 0.35 | 85 | 1010.5 |
| 20260904021547 | 58 | 84 | 0.0 | 2.0 | 0.00 | 0.36 | 0.35 | 84 | 1010.4 |
| 20260904021028 | 59 | 0 | 1.0 | 2.0 | 0.00 | 0.36 | 0.35 | 82 | 1010.4 |
| 20260904020528 | 59 | 0 | 0.0 | 2.0 | 0.00 | 0.36 | 0.35 | 82 | 1010.5 |
| 20260904020055 | 59 | 121 | 0.0 | 8.0 | 0.00 | 0.36 | 0.35 | 81 | 1010.4 |
| 20260904015527 | 59 | 138 | 2.0 | 8.0 | 0.00 | 0.36 | 0.35 | 81 | 1010.4 |
| 20260904015029 | 59 | 86 | 3.0 | 8.0 | 0.00 | 0.36 | 0.35 | 81 | 1010.3 |
| 20260904014604 | 60 | 118 | 3.0 | 9.0 | 0.00 | 0.36 | 0.35 | 80 | 1010.2 |
| 20260904014023 | 60 | 160 | 5.0 | 9.0 | 0.00 | 0.36 | 0.35 | 79 | 1010.1 |
| 20260904013524 | 61 | 149 | 5.0 | 9.0 | 0.00 | 0.36 | 0.35 | 78 | 1010.1 |
| 20260904013048 | 61 | 180 | 4.0 | 13.0 | 0.00 | 0.36 | 0.35 | 79 | 1010.1 |